Location: Barton Flats Campground
(34.1722°N, 116.8753°W)
Time: 19:12:21
(UTC+00:00)

CZ-4B R/B - Pass Details

Date: 08 August 2020
Orbit: 392 x 462 km, 97.6° (Epoch: 01 October)

Event Time Altitude Azimuth Distance (km) Brightness Sun altitude
Rises 12:28:36 0° 177° (S) 2,428 4.9 -7.6°
Reaches altitude 10° 12:30:40 10° 182° (S) 1,550 3.9 -7.2°
Maximum altitude 12:33:54 51° 259° (W) 550 1.5 -6.6°
Drops below altitude 10° 12:37:06 10° 337° (NNW) 1,523 4.1 -6.0°
Sets 12:39:07 0° 343° (NNW) 2,379 5.2 -5.7°
